+ View the NASA Portal
+ Center for Near-Earth Object Studies
IMPORTANT:
The SSD Announcement email list is now available. Major changes are coming in the near future, including possible hostname and/or URL changes. To be notified of such changes, subscribe to this email list.
Please visit
this page
for more details.
Don't show this message again
JPL Small-Body Database Browser
Search:
[
help
]
344724 (2003 UV104)
Classification:
Main-belt Asteroid
SPK-ID:
2344724
[
Ephemeris
|
Orbit Diagram
|
Orbital Elements
|
Mission Design
|
Physical Parameters
|
Discovery Circumstances
|
Close-Approach Data
]
[ show orbit diagram ]
Orbital Elements at Epoch 2458600.5 (2019-Apr-27.0) TDB
Reference:
JPL 12
(heliocentric ecliptic J2000)
Element
Value
Uncertainty (1-sigma)
Units
e
.1037381470220288
6.757e-08
a
2.862876798930264
3.5303e-08
au
q
2.56588726465688
1.9802e-07
au
i
6.668055238708
8.4325e-06
deg
node
12.97655043068306
5.9919e-05
deg
peri
43.81951670520905
7.3043e-05
deg
M
48.10631570925402
4.2967e-05
deg
t
p
2458364.070310592446
(2018-Sep-02.57031059)
0.00020914
TDB
period
1769.303820752711
4.84
3.2726e-05
8.96e-08
d
yr
n
.2034698596009621
3.7635e-09
deg/d
Q
3.159866333203647
3.8965e-08
au
Orbit Determination Parameters
# obs. used (total)
129
data-arc span
5551 days (15.20 yr)
first obs. used
2003-09-29
last obs. used
2018-12-10
planetary ephem.
DE431
SB-pert. ephem.
SB431-N16
condition code
0
norm. resid. RMS
.56035
source
ORB
producer
Otto Matic
solution date
2019-Jul-13 17:55:41
Additional Information
Earth MOID
= 1.58171 au
Jupiter MOID
= 2.18499 au
T_jup
= 3.283
[ show covariance matrix ]
[
Ephemeris
|
Orbit Diagram
|
Orbital Elements
|
Mission Design
|
Physical Parameters
|
Discovery Circumstances
|
Close-Approach Data
]
Physical Parameter Table
Parameter
Symbol
Value
Units
Sigma
Reference
Notes
absolute magnitude
H
16.3
n/a
MPO418778
344724 (2003 UV104)
Discovered 2003-Oct-18 by Spacewatch at Kitt Peak
Reference:
20121128/Numbers.arc
Last Updated:
2012-12-03
[ show close-approach data ]
Alternate Designations
2003 UV104
= 2008 UB60
[
Ephemeris
|
Orbit Diagram
|
Orbital Elements
|
Mission Design
|
Physical Parameters
|
Discovery Circumstances
|
Close-Approach Data
]
2019-Dec-16 08:17 UT
(server date/time)
Site Manager:
Ryan S. Park
Webmaster
:
Alan B. Chamberlin